Torna al catalogo

PRAETORIAN SDA_614

AttivoMilitarePO
NORAD 65577·PAYLOAD·🇺🇸 United States

Lanciato Sep 10, 2025 da Vandenberg Space Force Base

Loading…

Prossimi Passaggi (prossime 24 ore)

TLE

AggiornatoSource: Space-Track

Epoca: Sep 14, 2026, 01:13 UTC

1 65577U 25203N   26257.05108749  .00000052  00000-0  35913-4 0  9990
2 65577  81.2987 288.2075 0006258 316.1641  43.9019 13.84784127 51010

Traccia PRAETORIAN SDA_614 in tempo reale con AllMySat

Download on the App Store